Sigfox identifier Datetime Temperature Humidity SNR
002EF7E1 2019-04-23 14:47:33 16.2 30 22.6
002EF7E1 2019-04-23 14:12:54 16 30 22.6
002EF7E1 2019-04-23 13:38:15 16 30 22.2
002EF7E1 2019-04-23 13:03:37 15.8 30 21.9
002EF7E1 2019-04-23 12:28:59 15.7 30 21.4
002EF7E1 2019-04-23 11:54:20 15.6 29 21.1
002EF7E1 2019-04-23 11:19:41 15.6 29 21.1
002EF7E1 2019-04-23 10:45:03 15.6 29 20.8
002EF7E1 2019-04-23 10:10:24 15.6 29 20.7
002EF7E1 2019-04-23 09:35:45 15.4 29 20.6
002EF7E1 2019-04-23 09:01:07 15.4 29 20.5
002EF7E1 2019-04-23 08:26:28 15.5 29 20.6
002EF7E1 2019-04-23 07:51:49 15.4 29 20.3
002EF7E1 2019-04-23 07:17:09 15.5 29 20.4
002EF7E1 2019-04-23 06:42:30 15.4 29 20.5
002EF7E1 2019-04-23 06:07:52 15.4 29 20.4
002EF7E1 2019-04-23 05:33:13 15.4 29 20.2
002EF7E1 2019-04-23 04:58:35 15.4 29 20.3
002EF7E1 2019-04-23 04:23:57 15.4 29 20.2
002EF7E1 2019-04-23 03:49:19 15.4 29 20
002EF7E1 2019-04-23 03:14:40 15.4 29 20
002EF7E1 2019-04-23 02:40:02 15.5 29 20
002EF7E1 2019-04-23 02:05:25 15.5 29 20.2
002EF7E1 2019-04-23 01:30:47 15.6 29 20.1
002EF7E1 2019-04-23 00:56:09 15.6 29 20.1
002EF7E1 2019-04-23 00:21:31 15.6 29 20
002EF7E1 2019-04-22 23:46:54 15.6 29 19.8
002EF7E1 2019-04-22 23:12:15 15.6 29 19.6
002EF7E1 2019-04-22 22:37:37 15.6 29 19.6
002EF7E1 2019-04-22 22:02:58 15.6 29 19.6
002EF7E1 2019-04-22 21:28:20 15.7 29 19.7
002EF7E1 2019-04-22 20:53:42 15.8 29 21.1
002EF7E1 2019-04-22 20:19:03 15.8 29 21.1
002EF7E1 2019-04-22 19:44:25 15.8 29 21.2
002EF7E1 2019-04-22 19:09:47 15.8 29 21.1
002EF7E1 2019-04-22 18:35:08 15.8 29 21.1
002EF7E1 2019-04-22 18:00:29 15.8 29 21.2
002EF7E1 2019-04-22 17:25:50 15.8 29 21.2
002EF7E1 2019-04-22 16:51:10 15.8 29 21.2
002EF7E1 2019-04-22 16:16:30 15.8 29 21.2
002EF7E1 2019-04-22 15:41:50 15.7 28 21.2
002EF7E1 2019-04-22 15:07:10 15.6 28 21.3
002EF7E1 2019-04-22 14:32:29 15.6 28 21.2
002EF7E1 2019-04-22 13:57:51 15.6 28 21.2
002EF7E1 2019-04-22 13:23:12 15.6 28 21.4
002EF7E1 2019-04-22 12:48:33 15.6 28 21.4
002EF7E1 2019-04-22 12:13:54 15.6 28 21.3
002EF7E1 2019-04-22 11:39:16 15.6 28 21.3
002EF7E1 2019-04-22 11:04:37 15.6 28 21.3
002EF7E1 2019-04-22 10:29:59 15.6 28 21.3
002EF7E1 2019-04-22 09:55:21 15.4 28 21.4
002EF7E1 2019-04-22 09:20:42 15.4 28 21.5
002EF7E1 2019-04-22 08:46:04 15.4 28 21.6
002EF7E1 2019-04-22 08:11:26 15.4 28 21.5
002EF7E1 2019-04-22 07:36:47 15.5 28 21.6
002EF7E1 2019-04-22 07:02:08 15.6 28 21.5
002EF7E1 2019-04-22 06:27:30 15.6 28 20.2
002EF7E1 2019-04-22 05:52:51 15.6 28 20.2
002EF7E1 2019-04-22 05:18:13 15.6 28 20.1
002EF7E1 2019-04-22 04:43:36 15.4 28 20.2
002EF7E1 2019-04-22 04:08:59 15.6 28 20.2
002EF7E1 2019-04-22 03:34:19 15.4 28 20.1
002EF7E1 2019-04-22 02:59:42 15.5 28 20.2
002EF7E1 2019-04-22 02:25:03 15.4 28 20.2
002EF7E1 2019-04-22 01:50:24 15.4 28 20.2
002EF7E1 2019-04-22 01:15:46 15.4 28 20.2
002EF7E1 2019-04-22 00:41:07 15.4 28 20.3
002EF7E1 2019-04-22 00:06:28 15.4 28 21.5
002EF7E1 2019-04-21 23:31:50 15.4 28 21.6
002EF7E1 2019-04-21 22:57:11 15.4 28 21.5
002EF7E1 2019-04-21 22:22:33 15.4 28 21.6
002EF7E1 2019-04-21 21:47:54 15.4 28 21.8
002EF7E1 2019-04-21 21:13:16 15.4 28 21.7
002EF7E1 2019-04-21 20:38:38 15.4 28 21.8
002EF7E1 2019-04-21 20:04:01 15.4 28 21.9
002EF7E1 2019-04-21 19:29:23 15.4 28 21.8
002EF7E1 2019-04-21 18:54:45 15.4 28 21.8
002EF7E1 2019-04-21 18:20:06 15.4 27 21.9
002EF7E1 2019-04-21 17:45:28 15.4 27 21.8
002EF7E1 2019-04-21 17:10:48 15.4 27 21.9
002EF7E1 2019-04-21 16:36:09 15.4 27 21.9
002EF7E1 2019-04-21 16:01:29 15.4 27 22
002EF7E1 2019-04-21 15:26:49 15.4 27 21.9
002EF7E1 2019-04-21 14:52:09 15.4 27 22
002EF7E1 2019-04-21 14:17:30 15.4 27 22
002EF7E1 2019-04-21 13:42:52 15.3 27 22
002EF7E1 2019-04-21 13:08:12 15.4 27 22
002EF7E1 2019-04-21 12:33:34 15.3 27 21.8
002EF7E1 2019-04-21 11:58:54 15.3 27 21.9
002EF7E1 2019-04-21 11:24:15 15.4 27 21.9
002EF7E1 2019-04-21 10:49:35 15.4 27 21.8
002EF7E1 2019-04-21 10:14:57 15.4 27 21.8
002EF7E1 2019-04-21 09:40:17 15.4 27 20.6
002EF7E1 2019-04-21 09:05:38 15.6 27 20.5
002EF7E1 2019-04-21 08:30:59 15.6 27 20.5
002EF7E1 2019-04-21 07:56:20 15.6 27 20.4
002EF7E1 2019-04-21 07:21:42 15.6 27 20.2
002EF7E1 2019-04-21 06:47:03 15.6 27 20.3
002EF7E1 2019-04-21 06:12:23 15.6 27 20.2
002EF7E1 2019-04-21 05:37:41 15.5 27 20.1
002EF7E1 2019-04-21 05:03:02 15.5 27 20.1
002EF7E1 2019-04-21 04:28:22 15.4 27 20.2
002EF7E1 2019-04-21 03:53:44 15.5 27 20.2
002EF7E1 2019-04-21 03:19:03 15.4 27 20.2
002EF7E1 2019-04-21 02:44:24 15.4 27 20.2
002EF7E1 2019-04-21 02:09:45 15.4 27 20.1
002EF7E1 2019-04-21 01:35:05 15.4 27 20.2
002EF7E1 2019-04-21 01:00:25 15.4 27 20.1
002EF7E1 2019-04-21 00:25:46 15.5 27 20.1
002EF7E1 2019-04-20 23:51:07 15.4 27 20.1
002EF7E1 2019-04-20 23:16:28 15.4 27 20.2
002EF7E1 2019-04-20 22:41:48 15.4 27 20.3
002EF7E1 2019-04-20 22:07:08 15.4 27 20.2
002EF7E1 2019-04-20 21:32:27 15.4 26 20.1
002EF7E1 2019-04-20 20:57:46 15.5 26 20.2
002EF7E1 2019-04-20 20:23:06 15.4 26 20.1
002EF7E1 2019-04-20 19:48:26 15.4 26 20.2
002EF7E1 2019-04-20 19:13:45 15.4 26 20.2
002EF7E1 2019-04-20 18:39:05 15.6 26 20.2
002EF7E1 2019-04-20 18:04:24 15.5 26 20.3
002EF7E1 2019-04-20 17:29:43 15.4 26 20.3
002EF7E1 2019-04-20 16:55:02 15.4 26 20.3
002EF7E1 2019-04-20 16:20:21 15.4 26 20.2
002EF7E1 2019-04-20 15:45:41 15.4 26 20.2
002EF7E1 2019-04-20 15:11:01 15.4 26 20.3
002EF7E1 2019-04-20 14:36:22 15.4 26 20.3
002EF7E1 2019-04-20 14:01:41 15.4 26 20.5
002EF7E1 2019-04-20 13:26:58 15.4 26 20.6
002EF7E1 2019-04-20 12:52:17 15.4 26 20.6
002EF7E1 2019-04-20 12:17:36 15.4 26 20.6
002EF7E1 2019-04-20 11:42:56 15.4 26 20.6
002EF7E1 2019-04-20 11:08:16 15.4 26 20.6
002EF7E1 2019-04-20 10:33:34 15.4 26 20.6
002EF7E1 2019-04-20 09:58:53 15.4 26 20.6
002EF7E1 2019-04-20 09:24:13 15.6 26 20.7
002EF7E1 2019-04-20 08:49:34 15.6 26 20.8
002EF7E1 2019-04-20 08:14:53 15.6 26 20.8
002EF7E1 2019-04-20 07:40:12 15.6 26 20.8
002EF7E1 2019-04-20 07:05:32 15.6 26 20.9
002EF7E1 2019-04-20 06:30:53 15.6 26 20.9
002EF7E1 2019-04-20 05:56:12 15.6 26 20.9
002EF7E1 2019-04-20 05:21:32 15.6 26 20.9
002EF7E1 2019-04-20 04:46:52 15.6 26 20.9
002EF7E1 2019-04-20 04:12:11 15.6 26 20.9
002EF7E1 2019-04-20 03:37:30 15.6 26 20.9
002EF7E1 2019-04-20 03:02:49 15.7 25 20.9
002EF7E1 2019-04-20 02:28:09 15.7 25 21
002EF7E1 2019-04-20 01:53:28 15.8 25 21.1
002EF7E1 2019-04-20 01:18:47 15.8 25 21.1
002EF7E1 2019-04-20 00:44:07 15.8 25 21.1
002EF7E1 2019-04-20 00:09:28 15.8 25 21.1
002EF7E1 2019-04-19 23:34:49 15.9 25 20.9
002EF7E1 2019-04-19 23:00:10 15.9 25 20.9
002EF7E1 2019-04-19 22:25:33 15.9 25 20.9
002EF7E1 2019-04-19 21:50:51 16 25 20.9
002EF7E1 2019-04-19 21:16:12 16 25 20.9
002EF7E1 2019-04-19 20:41:33 16 25 21
002EF7E1 2019-04-19 20:06:54 16 25 20.9
002EF7E1 2019-04-19 19:32:16 16 25 20.9
002EF7E1 2019-04-19 18:57:36 16 25 20.8
002EF7E1 2019-04-19 18:22:57 16 25 20.8
002EF7E1 2019-04-19 17:48:18 16 25 20.8
002EF7E1 2019-04-19 17:13:40 16 25 20.8
002EF7E1 2019-04-19 16:39:01 16 25 20.9
002EF7E1 2019-04-19 16:04:23 15.9 25 20.9
002EF7E1 2019-04-19 15:29:43 15.8 25 21
002EF7E1 2019-04-19 14:55:03 15.8 25 20.9
002EF7E1 2019-04-19 14:20:24 15.8 25 20.9
002EF7E1 2019-04-19 13:45:44 15.8 25 20.9
002EF7E1 2019-04-19 13:11:05 15.7 25 21
002EF7E1 2019-04-19 12:36:25 15.7 25 20.9
002EF7E1 2019-04-19 12:01:46 15.7 25 20.8
002EF7E1 2019-04-19 11:27:07 15.7 25 20.8
002EF7E1 2019-04-19 10:52:27 15.6 25 20.8
002EF7E1 2019-04-19 10:17:48 15.6 25 20.8
002EF7E1 2019-04-19 09:43:08 15.6 25 20.7
002EF7E1 2019-04-19 09:08:29 15.6 25 21.9
002EF7E1 2019-04-19 08:33:49 15.7 25 22
002EF7E1 2019-04-19 07:59:09 15.6 24 22
002EF7E1 2019-04-19 07:24:29 15.7 24 22.1
002EF7E1 2019-04-19 06:49:48 15.8 24 22
002EF7E1 2019-04-19 06:15:09 15.8 24 22.2
002EF7E1 2019-04-19 05:40:29 15.8 24 22.4
002EF7E1 2019-04-19 05:05:50 15.8 24 22.8
002EF7E1 2019-04-19 04:31:11 15.8 24 22.8
002EF7E1 2019-04-19 03:56:33 15.8 24 23.1
002EF7E1 2019-04-19 03:21:54 16 24 23.1
002EF7E1 2019-04-19 02:47:14 15.9 24 23.3
002EF7E1 2019-04-19 02:12:35 16 24 23.4
002EF7E1 2019-04-19 01:37:55 16 24 23.4
002EF7E1 2019-04-19 01:03:16 16.1 24 23.3
002EF7E1 2019-04-19 00:28:35 16.3 24 23.5
002EF7E1 2019-04-18 23:53:55 16.3 24 23.5
002EF7E1 2019-04-18 23:19:15 16.4 24 23.7
002EF7E1 2019-04-18 22:44:35 16.5 24 23.6
002EF7E1 2019-04-18 22:09:55 16.5 24 23.7
002EF7E1 2019-04-18 21:35:14 16.5 24 23.7
002EF7E1 2019-04-18 21:00:34 16.5 24 23.7
002EF7E1 2019-04-18 20:25:54 16.5 24 23.8
002EF7E1 2019-04-18 19:51:13 16.5 24 23.8
002EF7E1 2019-04-18 19:16:31 16.5 24 23.9
002EF7E1 2019-04-18 18:41:51 16.5 24 23.3
002EF7E1 2019-04-18 18:07:11 16.5 24 23.3
002EF7E1 2019-04-18 17:32:31 16.5 24 23.3
002EF7E1 2019-04-18 16:57:52 16.5 24 23.4
002EF7E1 2019-04-18 16:23:13 16.3 24 23.4
002EF7E1 2019-04-18 15:48:35 16.3 24 23.4
002EF7E1 2019-04-18 15:13:56 16.3 24 23.2
002EF7E1 2019-04-18 14:39:16 16.2 24 23
002EF7E1 2019-04-18 14:04:35 16 24 23
002EF7E1 2019-04-18 13:29:56 16 24 22.8
002EF7E1 2019-04-18 12:55:16 16 24 22.8
002EF7E1 2019-04-18 12:20:36 16 24 22.5
002EF7E1 2019-04-18 11:45:56 16 24 22.3
002EF7E1 2019-04-18 11:11:15 16 23 22.3
002EF7E1 2019-04-18 10:36:35 16 23 22.4
002EF7E1 2019-04-18 10:01:55 15.9 23 22.1
002EF7E1 2019-04-18 09:27:16 15.8 23 22.1
002EF7E1 2019-04-18 08:52:36 16 23 22
002EF7E1 2019-04-18 08:17:55 16.2 23 22.1
002EF7E1 2019-04-18 07:43:15 16.1 23 22.1
002EF7E1 2019-04-18 07:08:35 16.1 23 22
002EF7E1 2019-04-18 06:33:55 16 23 22
002EF7E1 2019-04-18 05:59:15 16 23 22
002EF7E1 2019-04-18 05:24:36 16 23 22.2
002EF7E1 2019-04-18 04:49:56 16 23 22
002EF7E1 2019-04-18 04:15:16 16 23 21.8
002EF7E1 2019-04-18 03:40:36 16 23 21.7
002EF7E1 2019-04-18 03:05:56 16 23 21.6
002EF7E1 2019-04-18 02:31:16 16 23 21.5
002EF7E1 2019-04-18 01:56:36 16.3 23 21.5
002EF7E1 2019-04-18 01:21:55 16.3 23 21.3
002EF7E1 2019-04-18 00:47:14 16.3 23 21.4
002EF7E1 2019-04-18 00:12:33 16.5 23 21.2
002EF7E1 2019-04-17 23:37:52 16.5 23 21
002EF7E1 2019-04-17 23:03:13 16.5 23 20.8
002EF7E1 2019-04-17 22:28:33 16.5 23 20.7
002EF7E1 2019-04-17 21:53:54 16.5 23 20.8
002EF7E1 2019-04-17 21:19:14 16.5 23 20.7
002EF7E1 2019-04-17 20:44:35 16.4 22 20.7
002EF7E1 2019-04-17 20:09:55 16.4 22 20.7
002EF7E1 2019-04-17 19:35:15 16.4 22 20.8
002EF7E1 2019-04-17 19:00:36 16.4 22 20.9
002EF7E1 2019-04-17 18:25:56 16.3 22 20.9
002EF7E1 2019-04-17 17:51:16 16.3 22 20.9
002EF7E1 2019-04-17 17:16:37 16.3 22 21.1
002EF7E1 2019-04-17 16:41:57 16.3 22 21.2
002EF7E1 2019-04-17 16:07:18 16.3 22 21.1
002EF7E1 2019-04-17 15:32:39 16.3 22 21.1
002EF7E1 2019-04-17 14:58:00 16.3 22 22
002EF7E1 2019-04-17 14:23:19 16.4 22 22.2
002EF7E1 2019-04-17 13:14:01 16.6 22 22.2
002EF7E1 2019-04-17 12:39:21 16.5 22 22.1
002EF7E1 2019-04-17 12:04:42 16.5 22 22.1
002EF7E1 2019-04-17 11:30:03 16.5 22 22
002EF7E1 2019-04-17 10:55:24 16.5 21 21.9
002EF7E1 2019-04-17 10:20:46 16.5 21 22.8
002EF7E1 2019-04-17 09:46:06 16.5 21 22.7
002EF7E1 2019-04-17 09:11:26 16.7 21 23
002EF7E1 2019-04-17 08:36:46 16.8 21 23
002EF7E1 2019-04-17 08:02:08 17 21 23
002EF7E1 2019-04-17 07:27:29 17.1 21 23.1
002EF7E1 2019-04-17 06:52:51 17.3 21 23.3
002EF7E1 2019-04-17 06:18:12 17.5 21 23.3
002EF7E1 2019-04-17 05:43:32 17.5 21 23.4
002EF7E1 2019-04-17 05:08:53 17.5 21 23.4
002EF7E1 2019-04-17 04:34:13 17.5 21 23.4
002EF7E1 2019-04-17 03:59:33 17.6 21 23.2
002EF7E1 2019-04-17 03:24:53 17.8 21 23
002EF7E1 2019-04-17 02:50:14 17.8 21 22.9
002EF7E1 2019-04-17 02:15:33 17.8 21 22.8
002EF7E1 2019-04-17 01:40:54 17.8 21 22.8
002EF7E1 2019-04-17 01:06:14 17.8 21 22.7
002EF7E1 2019-04-17 00:31:33 17.8 21 22.4
002EF7E1 2019-04-16 23:56:54 17.5 21 21.4
002EF7E1 2019-04-16 23:22:14 17.6 21 21.2
002EF7E1 2019-04-16 22:47:33 17.8 20 21
002EF7E1 2019-04-16 22:12:52 18.2 20 21.3
002EF7E1 2019-04-16 21:38:13 18.4 21 21.2
002EF7E1 2019-04-16 21:03:31 18.6 21 22.3
002EF7E1 2019-04-16 20:28:51 18.8 21 22.3
002EF7E1 2019-04-16 19:54:10 18.8 21 21.3
002EF7E1 2019-04-16 19:19:30 18.8 21 21.4
002EF7E1 2019-04-16 18:44:52 18.8 21 21.2
002EF7E1 2019-04-16 18:10:12 19 20 21.1
002EF7E1 2019-04-16 17:35:32 19.1 20 21.3
002EF7E1 2019-04-16 17:00:52 19.2 20 21.4
002EF7E1 2019-04-16 15:51:33 19.7 20 21.3
002EF7E1 2019-04-16 15:16:53 20.1 20 21.5
002EF7E1 2019-04-16 14:42:13 20.5 20 21.2
002EF7E1 2019-04-16 12:58:09 21 21 21
002EF7E1 2019-04-16 12:23:29 21 21 21
002EF7E1 2019-04-16 11:48:47 20.7 21 21
002EF7E1 2019-04-16 11:14:06 20.7 21 21.3
002EF7E1 2019-04-16 10:39:25 20.7 21 21.6
002EF7E1 2019-04-16 10:04:45 20.7 21 21.6
002EF7E1 2019-04-16 09:30:04 20.7 21 21.5
002EF7E1 2019-04-16 08:55:25 20.7 21 21.6
002EF7E1 2019-04-16 08:20:44 20.7 21 21.8
002EF7E1 2019-04-16 07:46:03 20.7 21 21.6
002EF7E1 2019-04-16 07:11:23 20.7 21 22.6
002EF7E1 2019-04-16 06:36:43 20.7 21 22.4
002EF7E1 2019-04-16 06:02:02 20.7 21 22.4
002EF7E1 2019-04-16 05:27:23 20.7 21 21.7
002EF7E1 2019-04-16 04:52:41 20.7 21 21.6
002EF7E1 2019-04-16 04:18:00 20.7 21 21.5
002EF7E1 2019-04-16 03:43:20 20.7 21 21.7
002EF7E1 2019-04-16 03:08:40 20.7 21 21.5
002EF7E1 2019-04-16 02:34:01 20.7 20 21.5
002EF7E1 2019-04-16 01:59:17 20.7 20 21.6
002EF7E1 2019-04-16 01:24:35 20.8 20 21.7
002EF7E1 2019-04-16 00:49:56 20.7 20 21.6
002EF7E1 2019-04-16 00:15:16 20.9 20 21.8
002EF7E1 2019-04-15 23:40:36 20.8 20 22.7
002EF7E1 2019-04-15 23:05:56 20.9 20 23.5
002EF7E1 2019-04-15 22:31:15 20.9 20 24.1
002EF7E1 2019-04-15 21:56:34 20.9 20 24.7
002EF7E1 2019-04-15 21:21:52 21 20 25.2
002EF7E1 2019-04-15 20:47:10 21 20 25.2
002EF7E1 2019-04-15 20:12:28 21 20 25.5
002EF7E1 2019-04-15 19:37:47 21 19 25.7
002EF7E1 2019-04-15 19:03:06 21 19 26.1
002EF7E1 2019-04-15 18:28:25 21 19 26.3
002EF7E1 2019-04-15 17:53:45 21.2 19 26.4
002EF7E1 2019-04-15 17:19:04 21.2 19 26
002EF7E1 2019-04-15 16:44:22 21.3 19 26.3
002EF7E1 2019-04-15 16:09:42 21.4 19 26.6
002EF7E1 2019-04-15 15:35:05 21.4 19 27
002EF7E1 2019-04-15 15:00:19 21.6 18 27
002EF7E1 2019-04-15 14:25:38 21.8 18 27.1
002EF7E1 2019-04-15 13:50:57 21.8 18 27.3
002EF7E1 2019-04-15 13:16:15 22.1 18 27.5
002EF7E1 2019-04-15 12:41:33 22.2 18 27.6
002EF7E1 2019-04-15 12:06:51 22.5 17 27.9
002EF7E1 2019-04-15 11:32:09 22.3 16 28
002EF7E1 2019-04-15 10:57:28 22.3 16 28.1
002EF7E1 2019-04-15 10:22:46 22.2 16 28.2
002EF7E1 2019-04-15 09:48:04 22.3 16 28.3
002EF7E1 2019-04-15 09:13:22 22.2 16 28.2
002EF7E1 2019-04-15 08:38:41 22 16 28
002EF7E1 2019-04-15 08:04:00 22 16 28
002EF7E1 2019-04-15 07:29:19 21.8 16 27.9
002EF7E1 2019-04-15 06:54:39 21.8 16 27.7
002EF7E1 2019-04-15 06:19:58 21.8 17 27.8
002EF7E1 2019-04-15 05:45:17 21.8 17 27.6
002EF7E1 2019-04-15 05:10:36 21.8 17 27.6
002EF7E1 2019-04-15 04:35:57 21.8 17 27.4
002EF7E1 2019-04-15 04:01:16 21.8 17 27.4
002EF7E1 2019-04-15 03:26:35 21.8 17 27.6
002EF7E1 2019-04-15 02:51:54 21.8 17 27.8
002EF7E1 2019-04-15 02:17:14 21.8 17 27.6
002EF7E1 2019-04-15 01:42:34 21.8 17 27.6
002EF7E1 2019-04-15 01:07:53 21.8 17 27.3
002EF7E1 2019-04-15 00:33:12 21.8 17 27.3
002EF7E1 2019-04-14 23:58:31 21.8 17 27.3
002EF7E1 2019-04-14 23:23:50 21.8 17 27.2
002EF7E1 2019-04-14 22:49:09 21.8 17 27.1
002EF7E1 2019-04-14 22:14:27 21.8 17 27.1
002EF7E1 2019-04-14 21:39:47 21.8 18 27
002EF7E1 2019-04-14 21:05:06 21.9 18 27
002EF7E1 2019-04-14 20:30:26 22 18 27
002EF7E1 2019-04-14 19:55:46 22 18 26.9
002EF7E1 2019-04-14 19:21:06 22 18 26.8
002EF7E1 2019-04-14 18:46:25 22 18 26.7
002EF7E1 2019-04-14 18:11:45 21.9 17 27
002EF7E1 2019-04-14 17:37:03 21.8 17 26.9
002EF7E1 2019-04-14 17:02:22 21.8 17 26.8
002EF7E1 2019-04-14 16:27:39 21.8 17 26.9
002EF7E1 2019-04-14 15:52:59 21.8 17 26.9
002EF7E1 2019-04-14 15:18:17 21.8 18 27.1
002EF7E1 2019-04-14 14:43:36 21.8 18 27.2
002EF7E1 2019-04-14 14:08:54 21.8 18 27.2
002EF7E1 2019-04-14 13:34:12 21.8 18 27.2
002EF7E1 2019-04-14 12:59:31 21.8 18 27.1
002EF7E1 2019-04-14 12:24:49 21.9 18 27.2
002EF7E1 2019-04-14 11:50:09 21.8 18 27.3
002EF7E1 2019-04-14 11:15:27 21.8 18 27.3
002EF7E1 2019-04-14 10:40:46 21.8 18 27.3
002EF7E1 2019-04-14 10:06:06 21.8 18 27.3
002EF7E1 2019-04-14 09:31:24 21.8 18 27.4
002EF7E1 2019-04-14 08:56:44 21.8 18 27.5
002EF7E1 2019-04-14 08:22:03 21.8 18 27.6
002EF7E1 2019-04-14 07:47:22 21.8 17 27.5
002EF7E1 2019-04-14 07:12:40 21.8 17 27.4
002EF7E1 2019-04-14 06:37:58 21.8 17 27.4
002EF7E1 2019-04-14 06:03:16 21.8 17 27.4
002EF7E1 2019-04-14 05:28:34 21.8 17 27.4
002EF7E1 2019-04-14 04:53:53 21.8 17 27.5
002EF7E1 2019-04-14 04:19:12 21.8 17 27.4
002EF7E1 2019-04-14 03:44:30 21.9 17 27.2
002EF7E1 2019-04-14 03:09:50 21.8 17 27.1
002EF7E1 2019-04-14 02:35:09 21.9 17 27.3
002EF7E1 2019-04-14 02:00:28 21.9 17 27.2
002EF7E1 2019-04-14 01:25:47 21.9 17 27.4
002EF7E1 2019-04-14 00:51:07 22 17 27.1
002EF7E1 2019-04-14 00:16:26 22 17 27.1
002EF7E1 2019-04-13 23:41:44 22 17 27.2
002EF7E1 2019-04-13 23:07:03 22 17 27.2
002EF7E1 2019-04-13 22:32:21 22 17 27.1
002EF7E1 2019-04-13 21:57:40 22 17 27
002EF7E1 2019-04-13 21:23:00 22 17 27.1
002EF7E1 2019-04-13 20:48:19 22 17 27.2
002EF7E1 2019-04-13 20:13:38 22 17 27.3
002EF7E1 2019-04-13 19:38:58 22.1 17 27.3
002EF7E1 2019-04-13 19:04:19 22.1 17 27.3
002EF7E1 2019-04-13 18:29:38 22.1 17 27.4
002EF7E1 2019-04-13 17:54:58 22.2 17 27.4
002EF7E1 2019-04-13 17:20:19 22.2 17 27.3
002EF7E1 2019-04-13 16:45:37 22.2 17 27.4
002EF7E1 2019-04-13 16:10:56 22.2 17 27.5
002EF7E1 2019-04-13 15:36:15 22.2 17 27.4
002EF7E1 2019-04-13 15:01:35 22.2 17 27.3
002EF7E1 2019-04-13 14:26:53 22.2 17 27.3
002EF7E1 2019-04-13 13:52:13 22.2 17 27.4
002EF7E1 2019-04-13 13:17:32 22.2 17 27.6
002EF7E1 2019-04-13 12:42:51 22.2 17 27.5
002EF7E1 2019-04-13 12:08:09 22.3 17 27.4
002EF7E1 2019-04-13 11:33:27 22.3 17 27.5
002EF7E1 2019-04-13 10:58:45 22.3 17 27.5
002EF7E1 2019-04-13 10:24:03 22.2 17 27.5
002EF7E1 2019-04-13 09:49:22 22.2 17 27.6
002EF7E1 2019-04-13 09:14:40 22.2 17 27.6
002EF7E1 2019-04-13 08:39:59 22.2 17 27.6
002EF7E1 2019-04-13 08:05:17 22.2 17 27.5
002EF7E1 2019-04-13 07:30:35 22.2 17 27.6
002EF7E1 2019-04-13 06:55:54 22.2 17 27.5
002EF7E1 2019-04-13 06:21:13 22.2 17 27.5
002EF7E1 2019-04-13 05:46:32 22.2 17 27.4
002EF7E1 2019-04-13 05:11:50 22.2 17 27.3
002EF7E1 2019-04-13 04:37:08 22.2 17 27.4
002EF7E1 2019-04-13 04:02:26 22.3 17 27.1
002EF7E1 2019-04-13 03:27:44 22.4 17 27
002EF7E1 2019-04-13 02:53:02 22.4 17 27.1
002EF7E1 2019-04-13 02:18:19 22.5 17 27.1
002EF7E1 2019-04-13 01:43:37 22.5 17 27
002EF7E1 2019-04-13 01:08:55 22.5 17 27.2
002EF7E1 2019-04-13 00:34:12 22.5 17 27.2
002EF7E1 2019-04-12 23:59:29 22.5 18 27.2
002EF7E1 2019-04-12 23:24:47 22.5 18 27.2
002EF7E1 2019-04-12 22:50:04 22.5 18 27.1
002EF7E1 2019-04-12 22:15:23 22.7 18 27.3
002EF7E1 2019-04-12 21:40:41 22.7 18 27.2
002EF7E1 2019-04-12 21:05:58 22.7 18 27.2
002EF7E1 2019-04-12 20:31:15 22.8 18 26.9
002EF7E1 2019-04-12 19:56:33 22.7 17 26.9
002EF7E1 2019-04-12 19:21:51 22.7 17 26.5
002EF7E1 2019-04-12 18:47:08 22.8 17 26.5
002EF7E1 2019-04-12 18:12:25 22.9 16 26.4
002EF7E1 2019-04-12 17:37:42 23.1 17 26.6
002EF7E1 2019-04-12 17:03:00 23.1 18 26.5
002EF7E1 2019-04-12 16:28:17 23.1 18 26.6
002EF7E1 2019-04-12 15:53:35 23.1 18 25.8
002EF7E1 2019-04-12 15:18:51 23 19 26
002EF7E1 2019-04-12 14:44:09 22.9 19 26.6
002EF7E1 2019-04-12 14:09:26 22.6 19 22.6
002EF7E1 2019-04-12 13:34:44 22 20 24.6
002EF7E1 2019-04-12 13:00:02 20.6 26 0